Hourly Weather Zhidachov

Today, 5 August, Wednesday

Time Temperature Precipitation Wind Pressure Humidity
00:00 +19°C° 0.1 mm 2 mps 736 mmHg 93%
01:00 +19°C° 0.1 mm 2 mps 737 mmHg 94%
02:00 +19°C° 0 mm 2 mps 737 mmHg 94%
03:00 +19°C° 0.2 mm 2 mps 737 mmHg 95%
04:00 +18°C° 0.2 mm 2 mps 737 mmHg 95%
05:00 +18°C° 0.2 mm 3 mps 738 mmHg 96%
06:00 +19°C° 0.3 mm 3 mps 738 mmHg 96%
07:00 +19°C° 0.3 mm 3 mps 738 mmHg 96%
08:00 +19°C° 0 mm 3 mps 739 mmHg 95%
09:00 +20°C° 0.1 mm 3 mps 739 mmHg 94%
10:00 +20°C° 0.1 mm 3 mps 739 mmHg 92%
11:00 +21°C° 0.1 mm 3 mps 740 mmHg 90%
12:00 +21°C° 0.1 mm 3 mps 740 mmHg 87%
13:00 +23°C° 0.1 mm 2 mps 740 mmHg 84%
14:00 +24°C° 0.1 mm 2 mps 740 mmHg 81%
15:00 +25°C° 0 mm 2 mps 740 mmHg 79%
16:00 +25°C° 0 mm 2 mps 740 mmHg 77%
17:00 +26°C° 0 mm 2 mps 740 mmHg 75%
18:00 +24°C° 0 mm 2 mps 740 mmHg 80%
19:00 +23°C° 0 mm 2 mps 740 mmHg 85%
20:00 +21°C° 0 mm 2 mps 740 mmHg 90%
21:00 +20°C° 0 mm 2 mps 741 mmHg 91%
22:00 +19°C° 0 mm 2 mps 741 mmHg 92%
23:00 +20°C° 0 mm 1 mps 741 mmHg 92%

Tomorrow, 6 August, Thursday

Time Temperature Precipitation Wind Pressure Humidity
00:00 +19°C° 0 mm 1 mps 741 mmHg 92%
01:00 +19°C° 0 mm 1 mps 741 mmHg 91%
02:00 +18°C° 0 mm 1 mps 742 mmHg 90%
03:00 +18°C° 0 mm 1 mps 742 mmHg 90%
04:00 +16°C° 0 mm 1 mps 741 mmHg 91%
05:00 +16°C° 0 mm 1 mps 741 mmHg 91%
06:00 +18°C° 0 mm 1 mps 742 mmHg 87%
07:00 +20°C° 0 mm 1 mps 742 mmHg 83%
08:00 +21°C° 0 mm 1 mps 743 mmHg 79%
09:00 +23°C° 0 mm 2 mps 743 mmHg 73%
10:00 +25°C° 0 mm 2 mps 743 mmHg 68%
11:00 +27°C° 0 mm 2 mps 743 mmHg 62%
12:00 +28°C° 0 mm 3 mps 743 mmHg 59%
13:00 +28°C° 0 mm 3 mps 743 mmHg 56%
14:00 +29°C° 0 mm 4 mps 743 mmHg 52%
15:00 +29°C° 0 mm 4 mps 743 mmHg 56%
16:00 +29°C° 0 mm 3 mps 743 mmHg 59%
17:00 +29°C° 0 mm 3 mps 743 mmHg 63%
18:00 +27°C° 0 mm 3 mps 743 mmHg 67%
19:00 +25°C° 0 mm 3 mps 743 mmHg 72%
20:00 +22°C° 0 mm 3 mps 743 mmHg 77%
21:00 +21°C° 0 mm 2 mps 744 mmHg 79%
22:00 +20°C° 0 mm 2 mps 744 mmHg 80%
23:00 +20°C° 0 mm 2 mps 744 mmHg 82%

Day after tomorrow, 7 August, Friday

Time Temperature Precipitation Wind Pressure Humidity
00:00 +20°C° 0 mm 1 mps 744 mmHg 84%
01:00 +19°C° 0 mm 1 mps 744 mmHg 85%
02:00 +19°C° 0 mm 1 mps 744 mmHg 87%
03:00 +19°C° 0 mm 1 mps 744 mmHg 87%
04:00 +18°C° 0 mm 1 mps 744 mmHg 88%
05:00 +18°C° 0 mm 1 mps 744 mmHg 89%
06:00 +19°C° 0 mm 1 mps 744 mmHg 85%
07:00 +21°C° 0 mm 1 mps 745 mmHg 81%
08:00 +23°C° 0 mm 2 mps 745 mmHg 77%
09:00 +24°C° 0 mm 2 mps 745 mmHg 72%
10:00 +25°C° 0 mm 3 mps 745 mmHg 67%
11:00 +27°C° 0 mm 3 mps 745 mmHg 62%
12:00 +27°C° 0 mm 4 mps 745 mmHg 61%
13:00 +28°C° 0 mm 4 mps 745 mmHg 59%
14:00 +28°C° 0 mm 4 mps 745 mmHg 57%
15:00 +28°C° 0 mm 4 mps 744 mmHg 59%
16:00 +28°C° 0 mm 3 mps 744 mmHg 60%
17:00 +28°C° 0 mm 3 mps 744 mmHg 62%
18:00 +27°C° 0 mm 3 mps 744 mmHg 68%
19:00 +25°C° 0 mm 3 mps 744 mmHg 74%
20:00 +22°C° 0 mm 3 mps 744 mmHg 80%
21:00 +21°C° 0 mm 3 mps 744 mmHg 84%
22:00 +21°C° 0 mm 3 mps 744 mmHg 88%
23:00 +20°C° 0 mm 3 mps 744 mmHg 92%

8 August, Saturday

Time Temperature Precipitation Wind Pressure Humidity
00:00 +19°C° 0 mm 2 mps 744 mmHg 93%
01:00 +19°C° 0 mm 2 mps 744 mmHg 93%
02:00 +19°C° 0 mm 2 mps 744 mmHg 93%
03:00 +18°C° 0 mm 2 mps 744 mmHg 93%
04:00 +17°C° 0 mm 2 mps 744 mmHg 93%
05:00 +17°C° 0 mm 2 mps 744 mmHg 93%
06:00 +18°C° 0 mm 2 mps 744 mmHg 89%
07:00 +19°C° 0 mm 3 mps 744 mmHg 85%
08:00 +21°C° 0 mm 3 mps 744 mmHg 80%
09:00 +22°C° 0 mm 3 mps 744 mmHg 75%
10:00 +23°C° 0 mm 4 mps 744 mmHg 69%
11:00 +26°C° 0 mm 4 mps 744 mmHg 64%
12:00 +26°C° 0 mm 4 mps 744 mmHg 62%
13:00 +27°C° 0 mm 4 mps 744 mmHg 60%
14:00 +27°C° 0 mm 4 mps 743 mmHg 58%
15:00 +27°C° 0 mm 4 mps 743 mmHg 60%
16:00 +27°C° 0 mm 4 mps 743 mmHg 62%
17:00 +27°C° 0 mm 4 mps 743 mmHg 63%
18:00 +25°C° 0 mm 3 mps 743 mmHg 69%
19:00 +22°C° 0 mm 3 mps 743 mmHg 75%
20:00 +21°C° 0 mm 3 mps 743 mmHg 82%
21:00 +20°C° 0 mm 2 mps 743 mmHg 83%
22:00 +19°C° 0 mm 2 mps 743 mmHg 85%
23:00 +18°C° 0 mm 2 mps 743 mmHg 86%

9 August, Sunday

Time Temperature Precipitation Wind Pressure Humidity
00:00 +19°C° 0 mm 1 mps 743 mmHg 88%
01:00 +18°C° 0 mm 1 mps 743 mmHg 89%
02:00 +18°C° 0 mm 1 mps 742 mmHg 90%
03:00 +16°C° 0 mm 1 mps 742 mmHg 90%
04:00 +16°C° 0 mm 1 mps 742 mmHg 91%
05:00 +16°C° 0 mm 1 mps 742 mmHg 91%
06:00 +18°C° 0 mm 1 mps 742 mmHg 86%
07:00 +20°C° 0 mm 1 mps 742 mmHg 81%
08:00 +20°C° 0 mm 0 mps 742 mmHg 76%
09:00 +23°C° 0 mm 1 mps 742 mmHg 72%
10:00 +25°C° 0 mm 1 mps 742 mmHg 67%
11:00 +26°C° 0 mm 1 mps 742 mmHg 62%
12:00 +26°C° 0.3 mm 1 mps 742 mmHg 62%
13:00 +27°C° 0.3 mm 2 mps 741 mmHg 61%
14:00 +27°C° 0.3 mm 2 mps 741 mmHg 61%
15:00 +27°C° 0.2 mm 2 mps 741 mmHg 64%
16:00 +27°C° 0.2 mm 3 mps 741 mmHg 66%
17:00 +26°C° 0.2 mm 3 mps 741 mmHg 69%
18:00 +25°C° 0.3 mm 2 mps 740 mmHg 75%
19:00 +23°C° 0.3 mm 2 mps 740 mmHg 81%
20:00 +21°C° 0.3 mm 1 mps 740 mmHg 88%
21:00 +21°C° 0.9 mm 1 mps 741 mmHg 89%
22:00 +20°C° 0.9 mm 1 mps 741 mmHg 91%
23:00 +20°C° 0.9 mm 1 mps 741 mmHg 92%

10 August, Monday

Time Temperature Precipitation Wind Pressure Humidity
00:00 +19°C° 0.2 mm 1 mps 741 mmHg 93%
01:00 +19°C° 0.2 mm 1 mps 740 mmHg 93%
02:00 +19°C° 0.2 mm 1 mps 740 mmHg 93%
03:00 +18°C° 0 mm 1 mps 740 mmHg 93%
04:00 +18°C° 0 mm 1 mps 740 mmHg 93%
05:00 +18°C° 0 mm 1 mps 740 mmHg 93%
06:00 +19°C° 0 mm 1 mps 740 mmHg 90%
07:00 +20°C° 0 mm 1 mps 740 mmHg 87%
08:00 +22°C° 0 mm 1 mps 741 mmHg 85%
09:00 +23°C° 0.3 mm 1 mps 741 mmHg 79%
10:00 +24°C° 0.3 mm 1 mps 741 mmHg 74%
11:00 +25°C° 0.3 mm 2 mps 741 mmHg 69%
12:00 +26°C° 0.8 mm 2 mps 740 mmHg 66%
13:00 +26°C° 0.8 mm 3 mps 740 mmHg 64%
14:00 +27°C° 0.8 mm 3 mps 740 mmHg 62%
15:00 +27°C° 0.4 mm 3 mps 740 mmHg 64%
16:00 +26°C° 0.4 mm 3 mps 740 mmHg 65%
17:00 +26°C° 0.4 mm 2 mps 740 mmHg 66%
18:00 +24°C° 0.3 mm 2 mps 740 mmHg 72%
19:00 +23°C° 0.3 mm 2 mps 740 mmHg 78%
20:00 +20°C° 0.3 mm 2 mps 740 mmHg 85%
21:00 +19°C° 0.1 mm 2 mps 740 mmHg 86%
22:00 +19°C° 0.1 mm 1 mps 740 mmHg 87%
23:00 +19°C° 0.1 mm 1 mps 740 mmHg 88%
Show more